Showing default

BEIDOU 3M19, 44864

Orbit data source: Space-Track

BEIDOU 3M19, 44864 is a payload satellite owned by CNSA (CN) in MEO that was launched on Mon, 16 Dec 2019 UTC via a CHANG ZHENG 3B/YZ-1 launch vehicle from the Xichang Space Center, China (XSC). Payload-class satellites include a variety of spacecraft equipped with specific instruments for various scientific and technological missions. These include communications satellites like Starlink; space stations such as the ISS; scientific satellites like the Hubble; Earth observation satellites from companies like Planet Labs, Umbra, and HawkEye 360; GPS; miniature CubeSats for education and research; and military/defense satellites.

Loading next visibility...
Identifier
44864, 2019-090A
Orbit
MEO
Country
Flag of CNCN / PRC
Related business
Manufacturer
CAST
Mission
Operational Defense Navigation
Bus & Motor
BD-3M, Unknown motor
Mass
1,014 kg wet, ~850 kg dry
Launch date (UTC)
2019-12-16 (6 years ago)
Launch vehicle
CHANG ZHENG 3B/YZ-1
Launch site
Xichang Space Center, China (XSC)
Object type
Payload
Rocket body
Debris
Shape & HBR
Box + 2 Pan, Unknown HBR
Radar Cross Section
8.984 m², Large (>1 m²)

Expand to show TLE details & history
Last TLE update: 15 hours ago

TLE from 15 hours ago
0 BEIDOU 3M19
1 44864U 19090A   25293.03803168 -.00000034  00000-0  00000-0 0  9993
2 44864  56.3477  70.7415 0015971 285.1733 161.0580  1.86231574 39769
Epoch: 2025-10-20T00:54Z
TLE epoch observation values (Epoch: 2025-10-20T00:54:45.937Z)
Latitude
56.20172°
Longitude
111.6813°
Altitude
21,578.463 km
Speed
3.774 km/s
True Right ascension
10h 16m 28s
True Declination
56° 09' 40"
Sunlit
Object was in daylight at epoch
Visualization orbit readout
Latitude
Unknown
Longitude
Unknown
Altitude
Unknown
Speed
Unknown
Apparent Right ascension
Unknown
Apparent Declination
Unknown
Sunlit
N/A
Visualization observer readout
Local Sidereal Time
10:23:51
Azimuth
Unknown
Elevation
Unknown
Doppler factor
Unknown
Orbital elements
Apogee altitude
21,572.518 km
Perigee altitude
21,483.38 km
Semi-major axis
27,906.086 km
Eccentricity
0.0016
Inclination
56.3477°
RAAN
70.7415°
Arg. of periapsis
285.1733°
True anomaly
161.1173°
Mean anomaly
161.058°
Eccentric anomaly
161.08766°
Mean motion
0.46558 °/min
Orbital period
773.23 mins
BSTAR
0
Loading maneuver chart data...
Computing Atmospheric mass density...
Loading historical data...
Loading historical data...
Loading historical data...
Loading historical data...
Loading historical data...
Loading historical data...
Loading historical data...
Other satellites on launch #90 in the year 2019 (2019-12-16 UTC)

Documentation

Showing up to 5 results
|